Regional Weather Roundup
Issued by NWS

Home | Current Version | Previous Version | Text Only | Print | Product List | Glossary On
Versions: 1 2 3 4 5 6 7 8 9 10 11 12 13 14 15 16 17 18 19 20 21 22 23 24 25 26 27 28 29 30 31 32 33 34 35 36 37 38 39 40 41 42 43 44 45 46 47 48 49 50
000
ASHW40 PHFO 160530
RWRHI

WEATHER ROUNDUP FOR HAWAII
NATIONAL WEATHER SERVICE HONOLULU HI
700 PM HST TUE APR 15 2014

THIS IS AN AUTOMATED REPORT THAT HAS NOT BEEN QUALITY CONTROLLED.

NOTE..."FAIR" INDICATES FEW OR NO CLOUDS BELOW 12,000 FEET WITH NO
SIGNIFICANT WEATHER AND/OR OBSTRUCTIONS TO VISIBILITY.

* - THESE SITES REPORT LIMITED FIELDS

HIZ001>004-160600-
KAUAI-NIIHAU-

CITY           SKY/WX    TMP DP  RH WIND       PRES   REMARKS
LIHUE APT      CLOUDY    72  64  76 NE22      30.12R
PORT ALLEN*      N/A     75 N/A N/A NE13G18     N/A
POIPU*           N/A     73 N/A N/A NE8G17      N/A
PRINCEVILLE*   NOT AVBL
KOKOLE POINT*  NOT AVBL
MOLOAA DAIRY*  NOT AVBL
WAIMEA HTS*    NOT AVBL
PUU OPAE*      NOT AVBL
PUU LUA*       NOT AVBL
MAKAHA RIDGE*    N/A     66  61  82 N3G9        N/A
$$

HIZ005>011-160600-
OAHU-

CITY           SKY/WX    TMP DP  RH WIND       PRES   REMARKS
HONOLULU       MOCLDY    74  62  66 NE12      30.07R
KALAELOA       PTCLDY    74  62  66 VRB6      30.08R
KANEOHE MCB    LGT RAIN  75  62  63 E7        30.09R
WHEELER FIELD  DRIZZLE   69  63  80 E7        30.09R
BELLOWS*       NOT AVBL
KAHUKU*          N/A    N/A N/A N/A NE8G17      N/A
WHEELER*       NOT AVBL
WAIANAE HARBOR NOT AVBL
DILLINGHAM*    NOT AVBL
KAHUKU TRN*      N/A     70  68  94 E14G26      N/A
KAWAILOA*      NOT AVBL
KII*             N/A     73  64  73 NE17G28     N/A
MAKUA RANGE*     N/A     70  66  88 NE6G21      N/A
OAHU FOREST NW NOT AVBL
SCHOFIELD BRK* NOT AVBL
SCHOFIELD S*     N/A     64 N/A N/A NE1         N/A
WAIANAE VLY*   NOT AVBL
KUAOKALA*      NOT AVBL
HONOULIUULI*   NOT AVBL
MOKUOLOE IS*     N/A    N/A N/A N/A MISG        N/A
PALEHUA*       NOT AVBL
WAIAWA PHB*    NOT AVBL
$$

HIZ012>013-160600-
MOLOKAI-

CITY           SKY/WX    TMP DP  RH WIND       PRES   REMARKS
MOLOKAI AIRPT  PTCLDY    70  68  94 NE15G22   30.07R
KALAUPAPA      NOT AVBL
MAKAPULAPAI*   NOT AVBL
MOLOKAI 1*     NOT AVBL
PUU ALII*        N/A     54  54  99 E3G15       N/A
$$

HIZ016-160600-
KAHOOLAWE-

CITY           SKY/WX    TMP DP  RH WIND       PRES   REMARKS
KAHOOLAWE*     NOT AVBL
HAKIOAWA*        N/A     69  64  83 MISG      30.17R
HONOKANAIA*      N/A     76  61  59 NE9G28    30.05R
KANELOA*       NOT AVBL
KEALIALALO*      N/A    N/A N/A N/A NE8G26    30.35R
LUA MAKIKA*    NOT AVBL
$$

HIZ014>015-160600-
LANAI-

CITY           SKY/WX    TMP DP  RH WIND       PRES   REMARKS
LANAI CITY     FAIR      68  62  80 NE21G33   30.08R
LANAI 1*       NOT AVBL
$$

HIZ017>028-160600-
MAUI-

CITY           SKY/WX    TMP DP  RH WIND       PRES   REMARKS
KAHULUI        PTCLDY    72  65  78 NE9G18    30.07R
KAPALUA-W MAUI NOT AVBL
HANA AIRPORT   NOT AVBL
HANA*            N/A     75 N/A N/A NE9         N/A
HALEAKALA SUMM   N/A     36  36 100 NE40        N/A  WCI  21
MAALAEA BAY*   NOT AVBL
HALEAKALA*     NOT AVBL
KAUPO GAP*     NOT AVBL
KULA 1*          N/A     48  46  93 SE1G10      N/A
$$

HIZ023>026-160600-
BIG ISLAND OF HAWAII COAST AND LOWER SLOPES-

CITY           SKY/WX    TMP DP  RH WIND       PRES   REMARKS
KAILUA KONA    PTCLDY    79  64  60 S6        30.00R
HILO           CLOUDY    71  69  93 W6        30.07R
HONOKAA*       NOT AVBL
KAWAIHAE MWT*    N/A     79 N/A N/A SW3G10      N/A
KAWAIHAE*        N/A     79 N/A N/A SW3         N/A
SOUTH POINT*     N/A     70 N/A N/A NE16G24     N/A
UPOLU AIRPORT*   N/A    N/A N/A N/A NE21G29     N/A
KAMUELA*       MOCLDY    61  57  88 N25       30.12R
HAKALAU*         N/A     48  45  87 N2          N/A
KALOKO-HONOKO*   N/A     77  63  61 SE5G10    29.99R
PALI 2*          N/A     63  55  77 N25G35      N/A
KEALAKOMO*       N/A     72  61  68 NE12G24     N/A
KAUPULEHU*     NOT AVBL
KAPAPALA*        N/A     68  59  74 W3G12       N/A
LOWER KAHUKU*  NOT AVBL
PUHE CS*       NOT AVBL
PUHO CS*         N/A     77  63  61 S3G9        N/A
PTA KEAMUKU*     N/A     61  55  82 E3G25       N/A
WAIKOLOA*      NOT AVBL
$$

HIZ027>028-160600-
BIG ISLAND OF HAWAII INTERIOR AND SUMMMITS-

CITY           SKY/WX    TMP DP  RH WIND       PRES   REMARKS
BRADSHAW FIELD PTCLDY    54  46  75 SE8       30.31R
MK VISITOR CEN NOT AVBL
MAUNA KEA*       N/A     28 -18  12 E47         N/A  WCI  10
MAUNA LOA*       N/A     41   0  17 MISG        N/A
MAUNA LOA 1*     N/A    N/A N/A N/A MISG        N/A
PTA KIPUKA*      N/A     55  54  94 NW3G9       N/A
PTA RANGE 17*    N/A     57  45  62 E10G20      N/A
PTA WEST*        N/A     73  70  88 W7G15       N/A
NENE CABIN*    NOT AVBL
AHUMOA*        NOT AVBL
PTA PORTABLE*  NOT AVBL
PUU MALI*      NOT AVBL
$$

HIC003-160600-
NORTHWEST ISLANDS-

CITY           SKY/WX    TMP DP  RH WIND       PRES   REMARKS
MIDWAY ISLAND  SUNNY     75  70  83 SW7         N/A
MIDWAY NOS*    NOT AVBL
FRENCH FRIGATE NOT AVBL
$$

PHZ110>124-180-160600-
BUOY REPORTS

STATION/POSITION TIME  TEMP    WIND        PRES    WAVE   SWELL
                       AIR SEA DIR/SP/G            HT/PER HT/DIR
                 (UTC) (F)     (DEG/KT/KT) (MB)    (FT/S) (FT/D)
BUOY 51001       NOT AVBL
BUOY 51101       0500   72 74   60/ 14/ 17 1020.6R   6/ 9   5/110
BUOY 51100       0500   72 73   60/ 19/ 21 1019.2R
BUOY 51003       0500   76 78   50/ 17/ 19 1016.6R   9/ 8   5
BUOY 51004       0500   76 77   50/ 16/ 21 1013.4R   7/ 8   5
BARBERS PT BUOY  NOT AVBL
WAIMEA BAY BUOY  0500      75                N/A     6/ 9   2/ 20
KAILUA BAY BUOY  0500      74                N/A    10/ 9   3/ 70
LANAI BUOY       0500      77                N/A     2/14   2/210
BARBERS PT 2     0500      76                N/A     3/ 7   2/180
PAUWELA MAUI     NOT AVBL
HILO             0500      77                N/A     9/ 9   3/ 30
KANEOHE BAY BUOY 0500      75                N/A     9/10   2/ 60
HANALEI KAUAI    0500      77                N/A     7/ 9   2/ 60
KAHULUI HARBOR   0500   74 76   60/  8/ 14 1018.0R
HONOLULU HARBOR  0500   72      60/  4/  6 1018.5R
KILO NALU        NOT AVBL
HILO HARBOR      0500   72 76  280/  5/  7 1017.8R
MOKUOLOE         0500   72 74  100/ 11/ 14 1019.1R
NAWILIWILI       0500      76                N/A
WHOTS BUOY       NOT AVBL
BUOY 51028       NOT AVBL
$$

......................KEY........................................
  SKY/WX - SKY CONDITIONS/PRESENT WEATHER
  TMP    - TEMPERATURE IN FAHRENHEIT
  DWPT   - DEWPOINT IN FAHRENHEIT
  RH     - RELATIVE HUMIDITY IN PERCENT
  WIND   - DIRECTION AND SPEED /MPH FOR ISLANDS...KTS FOR BUOYS/
  PRES   - MEAN SEA LEVEL PRESSURE IN INCHES OF HG
  VSB    - VISIBILITY IN MILES
  HX     - HEAT INDEX
  WCI    - WIND CHILL INDEX
  VRB    - VARIABLE WIND DIRECTION
  N/A    - NOT AVAILABLE



USA.gov is the U.S. government's official web portal to all federal, state and local government web resources and services.